Content
SEND FEEDBACK

Daily
Averages
Monthly
Summary
United States of America

CAMP QUEZON, GUAM


Home > North America > United States > Guam
Elevation: 269 feet     Latitude: 13 28N     Longitude: 144 48E

WEATHER
 
SELECT A DAY
Number of Records: 209,133;   Date Range: 1/1/95 - 8/28/14
 
SHARE

PRINT THIS DATA

[ ← Previous Day ]
WEATHER ALMANAC - JANUARY 26, 2014
[ Next Day → ]
[ °C ]   °F
Weather ElementAverageHighLow
Temperature78.7 °F81 °F (12:54 pm)75.9 °F (6:54 am)
Dewpoint76.2 °F78.8 °F (12:03 pm)75 °F (1:54 am)
Humidity92 %97 % (6:54 am)88 % (12:54 pm)
Barometer29.66 in29.72 in (9:54 am)29.61 in (2:54 pm)
Wind Speed5.1 mph9.2 mph (1:38 pm)
Weather ElementAverage
Visibility9.5 mi
Wind DirectionENE (61.9 °)

Weather ElementTotal
Precipitation0.19 in
Cooling Degree Days13.5 (Base 65)
Growing Degree Days28.5 (Base 50)
Averaged from 36 records on January 26, 2014
WEATHER CONDITIONS BREAKOUT
WIND DIRECTION BREAKOUT
WEATHER BY HOUR - JANUARY 26, 2014
[ °C ]   °F
Local TimeTemperatureDewpointHumidityBarometerVisibilityWind DirectionWind SpeedGust SpeedPrecipitationEventsConditions
1:54 AM77.0 °F75.0 °F94 %29.65 in10.0 miNorth (10°)5.8 mphClear
2:51 AM77.0 °F75.2 °F94 %29.67 in10.0 miNNE (20°)4.6 mphMostly Cloudy
2:54 AM77.0 °F75.9 °F96 %29.66 in10.0 miNorth (10°)3.5 mphOvercast
3:52 AM78.8 °F75.2 °F89 %29.66 in7.0 miNorth (10°)4.6 mph0.00 inRainLight Rain
3:54 AM78.1 °F75.9 °F93 %29.64 in8.0 miNorth (10°)4.6 mph0.00 inRainLight Rain
4:54 AM78.1 °F75.9 °F93 %29.63 in10.0 miNE (50°)8.1 mph0.00 inPartly Cloudy
5:54 AM79.0 °F75.9 °F90 %29.65 in8.0 miESE (110°)8.1 mph0.00 inRainLight Rain
6:54 AM75.9 °F75.0 °F97 %29.68 in9.0 miEast (90°)4.6 mph0.10 inRainLight Rain
7:54 AM77.0 °F75.0 °F94 %29.68 in10.0 miEast (100°)8.1 mph0.01 inMostly Cloudy
8:54 AM78.1 °F75.0 °F90 %29.70 in10.0 miCalm0.00 inMostly Cloudy
9:54 AM79.0 °F75.9 °F90 %29.72 in10.0 miCalmMostly Cloudy
10:54 AM79.0 °F75.9 °F90 %29.70 in10.0 miNNE (30°)5.8 mph0.00 inRainLight Rain
11:54 AM80.1 °F78.1 °F94 %29.66 in9.0 miNNW (340°)5.8 mph0.00 inRainLight Rain
12:03 PM80.6 °F78.8 °F94 %29.68 in10.0 miNorth (360°)8.1 mph0.00 inRainLight Rain
12:04 PM80.6 °F78.8 °F94 %29.68 in10.0 miNorth (10°)8.1 mph0.00 inRainLight Rain
12:54 PM81.0 °F77.0 °F88 %29.65 in10.0 miNNE (20°)8.1 mph0.00 inRainLight Rain
1:38 PM80.6 °F77.0 °F89 %29.66 in10.0 miNNE (20°)9.2 mph0.00 inOvercast
1:54 PM80.1 °F77.0 °F90 %29.63 in10.0 miNNE (20°)8.1 mph0.00 inOvercast
2:24 PM80.6 °F77.0 °F89 %29.63 in10.0 miNorth (360°)8.1 mphOvercast
2:43 PM80.6 °F77.0 °F89 %29.63 in7.0 miVariable4.6 mph0.00 inRainLight Rain
2:54 PM80.1 °F77.0 °F90 %29.61 in7.0 miNNE (30°)3.5 mph0.01 inRainLight Rain
3:54 PM79.0 °F77.0 °F94 %29.61 in10.0 miNNE (30°)6.9 mph0.07 inRainLight Rain
4:25 PM80.6 °F77.0 °F89 %29.64 in10.0 miENE (60°)6.9 mph0.00 inRainLight Rain
4:54 PM78.1 °F75.9 °F93 %29.61 in10.0 miENE (70°)9.2 mph0.00 inRainLight Rain
5:01 PM78.8 °F75.2 °F89 %29.63 in10.0 miENE (70°)5.8 mph0.00 inOvercast
5:54 PM78.1 °F75.9 °F93 %29.63 in10.0 miCalm0.00 inOvercast
6:03 PM78.8 °F75.2 °F89 %29.66 in10.0 miEast (100°)3.5 mphOvercast
6:23 PM78.8 °F75.2 °F89 %29.65 in8.0 miNE (50°)6.9 mph0.00 inRain-ThunderstormLight Thunderstorms and Rain
6:39 PM78.8 °F75.2 °F89 %29.66 in10.0 miNE (50°)4.6 mph0.00 inMostly Cloudy
6:54 PM78.1 °F75.9 °F93 %29.64 in10.0 miCalm0.00 inMostly Cloudy
7:41 PM78.8 °F77.0 °F94 %29.68 in10.0 miCalmScattered Clouds
7:54 PM78.1 °F77.0 °F96 %29.67 in10.0 miNE (40°)4.6 mphPartly Cloudy
8:54 PM78.1 °F75.9 °F93 %29.67 in10.0 miEast (80°)4.6 mphScattered Clouds
9:54 PM77.0 °F75.9 °F96 %29.66 in10.0 miNNE (20°)3.5 mphScattered Clouds
10:54 PM77.0 °F75.9 °F96 %29.66 in10.0 miCalmMostly Cloudy
11:54 PM78.1 °F75.9 °F93 %29.65 in10.0 miENE (60°)5.8 mphClear
Hourly data recorded from PGUM, located miles away from Camp Quezon, Guam







STORIES FROM OUR PARTNERS